User: anonymous   Login
Location: Chilton Park
(37.7711°N, 100.0276°W)
Time: 19:20:24
(UTC+00:00)
Language:

IRAS Rocket - Orbit

View from above orbital plane
View from above orbital plane
View from above satellite
View from above satellite

Ground track
Ground track

The orbit data is extracted from the following two-line orbital elements,

1 13778U 83004B   22144.11733079  .00000091  00000-0  83554-4 0  9994
2 13778 100.0797   2.9486 0020905 347.3545  12.7094 14.09091008 20780
Epoch (UTC): 24 May 2022 02:48:57
Eccentricity: 0.0020905
inclination: 100.0797°
perigee height: 847 km
apogee height: 877 km
right ascension of ascending node: 2.9486°
argument of perigee: 347.3545°
revolutions per day: 14.09091008
mean anomaly at epoch: 12.7094°
orbit number at epoch: 2078

The dashed part of the orbit path shows where the satellite is in the earth's shadow,  

DLR